Location: Putah Creek Observatory
(38.7021°N, 122.3865°W)
Time: 03:34:18
(UTC-07:00)

Meteor 1-29 - Pass Details

Date: 27 May 2018
Orbit: 443 x 464 km, 97.7° (Epoch: 18 August)

Event Time Altitude Azimuth Distance (km) Brightness Sun altitude
Rises 22:59:41 0° 10° (N) 2,507 7.4 -22.9°
Reaches altitude 10° 23:01:45 10° 10° (N) 1,625 6.3 -23.1°
Enters shadow 23:04:35 56° 357° (N) 561 3.5 -23.4°
